• In Hungary
  • List of Countries
  • For 7 days
  • Water Temperature
  • Satellite Maps
  • Weather Map
  • News
  • Weather Widgets
  • user-avatar
    Login

    Hourly Weather Nowa Wies Leborska

    Today, 11 December, Monday

    Time Temperature Precipitation Wind Pressure Humidity
    00:00 -3°C° 0 mm 7 mps 738 mmHg 75%
    01:00 -3°C° 0 mm 6 mps 737 mmHg 79%
    02:00 -3°C° 0.1 mm 6 mps 737 mmHg 81%
    03:00 -3°C° 0.1 mm 6 mps 737 mmHg 84%
    04:00 -3°C° 0.1 mm 6 mps 737 mmHg 86%
    05:00 -2°C° 0.3 mm 6 mps 736 mmHg 87%
    06:00 -2°C° 0.3 mm 6 mps 736 mmHg 87%
    07:00 0°C° 0 mm 4 mps 736 mmHg 89%
    08:00 0°C° 0.1 mm 5 mps 737 mmHg 89%
    09:00 +1°C° 0.1 mm 5 mps 738 mmHg 89%
    10:00 +1°C° 0.1 mm 6 mps 738 mmHg 89%
    11:00 +2°C° 0 mm 5 mps 738 mmHg 88%
    12:00 +2°C° 0 mm 5 mps 739 mmHg 87%
    13:00 +2°C° 0 mm 5 mps 739 mmHg 88%
    14:00 +1°C° 0 mm 4 mps 739 mmHg 89%
    15:00 +1°C° 0 mm 4 mps 739 mmHg 90%
    16:00 +1°C° 0 mm 3 mps 740 mmHg 91%
    17:00 0°C° 0 mm 4 mps 740 mmHg 92%
    18:00 0°C° 0 mm 4 mps 740 mmHg 92%
    19:00 +1°C° 0 mm 5 mps 740 mmHg 93%
    20:00 +1°C° 0.3 mm 5 mps 739 mmHg 93%
    21:00 +1°C° 0.3 mm 5 mps 739 mmHg 93%
    22:00 +2°C° 0.3 mm 6 mps 738 mmHg 93%
    23:00 +2°C° 0.6 mm 6 mps 738 mmHg 93%

    Tomorrow, 12 December, Tuesday

    Time Temperature Precipitation Wind Pressure Humidity
    00:00 +2°C° 0.6 mm 6 mps 737 mmHg 93%
    01:00 +3°C° 0.6 mm 6 mps 737 mmHg 93%
    02:00 +3°C° 0.2 mm 5 mps 737 mmHg 94%
    03:00 +3°C° 0.2 mm 5 mps 736 mmHg 94%
    04:00 +3°C° 0.2 mm 5 mps 736 mmHg 95%
    05:00 +3°C° 0.3 mm 5 mps 737 mmHg 95%
    06:00 +3°C° 0.3 mm 5 mps 737 mmHg 94%
    07:00 +3°C° 0.3 mm 6 mps 737 mmHg 94%
    08:00 +3°C° 0.1 mm 6 mps 738 mmHg 90%
    09:00 +4°C° 0.1 mm 7 mps 738 mmHg 86%
    10:00 +4°C° 0.1 mm 8 mps 739 mmHg 83%
    11:00 +4°C° 0 mm 8 mps 739 mmHg 80%
    12:00 +3°C° 0 mm 9 mps 740 mmHg 77%
    13:00 +3°C° 0 mm 9 mps 740 mmHg 74%
    14:00 +3°C° 0.1 mm 10 mps 741 mmHg 75%
    15:00 +2°C° 0.1 mm 10 mps 742 mmHg 75%
    16:00 +2°C° 0.1 mm 10 mps 742 mmHg 76%
    17:00 +2°C° 0.4 mm 11 mps 743 mmHg 76%
    18:00 +1°C° 0.4 mm 11 mps 744 mmHg 75%
    19:00 +1°C° 0.4 mm 11 mps 745 mmHg 75%
    20:00 +1°C° 0.5 mm 11 mps 746 mmHg 76%
    21:00 -1°C° 0.5 mm 11 mps 747 mmHg 77%
    22:00 0°C° 0.5 mm 10 mps 748 mmHg 78%
    23:00 0°C° 0.1 mm 10 mps 749 mmHg 77%

    Day after tomorrow, 13 December, Wednesday

    Time Temperature Precipitation Wind Pressure Humidity
    00:00 0°C° 0.1 mm 9 mps 751 mmHg 75%
    01:00 0°C° 0.1 mm 9 mps 752 mmHg 73%
    02:00 -1°C° 0 mm 9 mps 753 mmHg 76%
    03:00 -1°C° 0 mm 8 mps 753 mmHg 79%
    04:00 -1°C° 0 mm 8 mps 754 mmHg 82%
    05:00 -1°C° 0 mm 8 mps 754 mmHg 83%
    06:00 -1°C° 0 mm 8 mps 755 mmHg 83%
    07:00 -2°C° 0 mm 8 mps 755 mmHg 84%
    08:00 -2°C° 0 mm 8 mps 755 mmHg 83%
    09:00 -2°C° 0 mm 8 mps 755 mmHg 83%
    10:00 -2°C° 0 mm 8 mps 755 mmHg 82%
    11:00 -1°C° 0 mm 8 mps 755 mmHg 80%
    12:00 -1°C° 0 mm 8 mps 754 mmHg 78%
    13:00 -1°C° 0 mm 8 mps 754 mmHg 75%
    14:00 -1°C° 0 mm 8 mps 753 mmHg 76%
    15:00 -2°C° 0 mm 8 mps 753 mmHg 77%
    16:00 -2°C° 0 mm 8 mps 752 mmHg 78%
    17:00 -3°C° 0 mm 9 mps 752 mmHg 76%
    18:00 -3°C° 0 mm 9 mps 751 mmHg 75%
    19:00 -3°C° 0 mm 9 mps 750 mmHg 73%
    20:00 -3°C° 0 mm 9 mps 749 mmHg 72%
    21:00 -3°C° 0 mm 10 mps 748 mmHg 70%
    22:00 -3°C° 0 mm 10 mps 747 mmHg 69%
    23:00 -3°C° 0.1 mm 10 mps 746 mmHg 70%

    14 December, Thursday

    Time Temperature Precipitation Wind Pressure Humidity
    00:00 -3°C° 0.1 mm 10 mps 745 mmHg 71%
    01:00 -2°C° 0.1 mm 10 mps 745 mmHg 73%
    02:00 -2°C° 0.1 mm 10 mps 743 mmHg 74%
    03:00 -2°C° 0.1 mm 10 mps 742 mmHg 76%
    04:00 -1°C° 0.1 mm 9 mps 741 mmHg 77%
    05:00 -2°C° 0.2 mm 10 mps 741 mmHg 78%
    06:00 0°C° 0.2 mm 10 mps 740 mmHg 78%
    07:00 0°C° 0.2 mm 10 mps 739 mmHg 78%
    08:00 0°C° 0.2 mm 10 mps 739 mmHg 80%
    09:00 +1°C° 0.2 mm 9 mps 739 mmHg 82%
    10:00 +1°C° 0.2 mm 8 mps 740 mmHg 83%
    11:00 +1°C° 0.4 mm 8 mps 740 mmHg 83%
    12:00 +1°C° 0.4 mm 8 mps 740 mmHg 83%
    13:00 0°C° 0.4 mm 8 mps 740 mmHg 82%
    14:00 0°C° 0.3 mm 8 mps 741 mmHg 81%
    15:00 0°C° 0.3 mm 9 mps 741 mmHg 80%
    16:00 -1°C° 0.3 mm 9 mps 741 mmHg 78%
    17:00 -1°C° 0.1 mm 9 mps 741 mmHg 78%
    18:00 -1°C° 0.1 mm 9 mps 741 mmHg 77%
    19:00 -1°C° 0.1 mm 9 mps 742 mmHg 77%
    20:00 -2°C° 0 mm 8 mps 742 mmHg 77%
    21:00 -2°C° 0 mm 8 mps 742 mmHg 77%
    22:00 -2°C° 0 mm 8 mps 742 mmHg 78%
    23:00 -2°C° 0 mm 7 mps 742 mmHg 77%

    15 December, Friday

    Time Temperature Precipitation Wind Pressure Humidity
    00:00 -2°C° 0 mm 7 mps 741 mmHg 77%
    01:00 -2°C° 0 mm 6 mps 741 mmHg 76%
    02:00 -3°C° 0.1 mm 6 mps 741 mmHg 79%
    03:00 -2°C° 0.1 mm 5 mps 740 mmHg 82%
    04:00 -2°C° 0.1 mm 4 mps 740 mmHg 84%
    05:00 -2°C° 0.4 mm 4 mps 739 mmHg 88%
    06:00 0°C° 0.4 mm 3 mps 739 mmHg 91%
    07:00 +1°C° 0.4 mm 2 mps 739 mmHg 94%
    08:00 0°C° 0 mm 3 mps 739 mmHg 93%
    09:00 0°C° 0 mm 3 mps 739 mmHg 92%
    10:00 0°C° 0 mm 3 mps 739 mmHg 91%
    11:00 -1°C° 0 mm 4 mps 740 mmHg 90%
    12:00 0°C° 0 mm 5 mps 740 mmHg 89%
    13:00 -1°C° 0 mm 6 mps 741 mmHg 88%
    14:00 -1°C° 0 mm 6 mps 741 mmHg 88%
    15:00 -1°C° 0 mm 7 mps 742 mmHg 88%
    16:00 -2°C° 0 mm 7 mps 742 mmHg 88%
    17:00 -2°C° 0 mm 7 mps 743 mmHg 88%
    18:00 -2°C° 0 mm 7 mps 743 mmHg 89%
    19:00 -2°C° 0 mm 7 mps 744 mmHg 90%
    20:00 -3°C° 0 mm 6 mps 744 mmHg 91%
    21:00 -3°C° 0 mm 6 mps 745 mmHg 91%
    22:00 -3°C° 0 mm 6 mps 745 mmHg 92%
    23:00 -4°C° 0 mm 5 mps 745 mmHg 92%

    16 December, Saturday

    Time Temperature Precipitation Wind Pressure Humidity
    00:00 -4°C° 0 mm 5 mps 745 mmHg 93%
    01:00 -4°C° 0 mm 5 mps 746 mmHg 93%
    02:00 -4°C° 0 mm 5 mps 746 mmHg 93%
    03:00 -4°C° 0 mm 5 mps 746 mmHg 93%
    04:00 -4°C° 0 mm 5 mps 746 mmHg 94%
    05:00 -3°C° 0 mm 4 mps 746 mmHg 93%
    06:00 -2°C° 0 mm 4 mps 746 mmHg 93%
    07:00 -2°C° 0 mm 4 mps 746 mmHg 93%
    08:00 -2°C° 0 mm 4 mps 747 mmHg 92%
    09:00 -2°C° 0 mm 4 mps 747 mmHg 91%
    10:00 -1°C° 0 mm 4 mps 747 mmHg 90%
    11:00 -1°C° 0 mm 4 mps 747 mmHg 89%
    12:00 -1°C° 0 mm 5 mps 747 mmHg 89%
    13:00 0°C° 0 mm 5 mps 747 mmHg 88%
    14:00 -1°C° 0 mm 5 mps 747 mmHg 88%
    15:00 -1°C° 0 mm 5 mps 748 mmHg 89%
    16:00 -1°C° 0 mm 5 mps 748 mmHg 89%
    17:00 -1°C° 0 mm 5 mps 748 mmHg 89%
    18:00 -2°C° 0 mm 6 mps 748 mmHg 89%
    19:00 -3°C° 0 mm 6 mps 749 mmHg 89%
    20:00 -3°C° 0 mm 6 mps 749 mmHg 90%
    21:00 -3°C° 0 mm 6 mps 749 mmHg 90%
    22:00 -3°C° 0 mm 6 mps 749 mmHg 91%
    23:00 -3°C° 0 mm 6 mps 749 mmHg 90%
    Show more